TimeCDT,TemperatureF,Dew PointF,Humidity,Sea Level PressureIn,VisibilityMPH,Wind Direction,Wind SpeedMPH,Gust SpeedMPH,PrecipitationIn,Events,Conditions,WindDirDegrees,DateUTC
12:58 AM,79.5,71.4,76,29.97,10.0,SSW,4.6,-,N/A,,Mostly Cloudy,210,2013-07-10 05:58:00
1:58 AM,78.4,70.9,77,29.95,10.0,SSW,4.6,-,N/A,,Scattered Clouds,200,2013-07-10 06:58:00
2:58 AM,77.2,70.7,80,29.94,10.0,SSW,4.6,-,N/A,,Partly Cloudy,210,2013-07-10 07:58:00
3:58 AM,77.9,70.0,76,29.94,10.0,SW,4.6,-,N/A,,Clear,220,2013-07-10 08:58:00
4:46 AM,78.8,71.6,78,30.03,10.0,WNW,6.9,20.7,N/A,Rain-Thunderstorm,Light Thunderstorms and Rain,300,2013-07-10 09:46:00
4:51 AM,77.0,73.4,89,30.04,2.0,WNW,5.8,20.7,N/A,Rain-Thunderstorm,Heavy Thunderstorms and Rain,290,2013-07-10 09:51:00
4:56 AM,75.2,73.4,94,30.04,0.5,Variable,1.2,-,N/A,Fog-Rain-Thunderstorm,Heavy Thunderstorms and Rain,0,2013-07-10 09:56:00
4:58 AM,75.2,73.4,94,30.01,0.5,North,2.3,-,0.25,Fog-Rain-Thunderstorm,Heavy Thunderstorms and Rain,10,2013-07-10 09:58:00
5:08 AM,73.4,73.4,100,30.02,4.0,NE,2.3,-,N/A,Rain-Thunderstorm,Light Thunderstorms and Rain,40,2013-07-10 10:08:00
5:15 AM,73.4,73.4,100,30.03,10.0,ENE,2.3,-,N/A,Rain-Thunderstorm,Light Rain,60,2013-07-10 10:15:00
5:58 AM,73.2,73.2,100,29.99,8.0,WNW,8.1,-,0.13,Rain,Light Rain,300,2013-07-10 10:58:00
6:23 AM,73.4,73.4,100,30.01,8.0,West,6.9,16.1,N/A,Rain-Thunderstorm,Thunderstorms and Rain,280,2013-07-10 11:23:00
6:44 AM,73.4,71.6,94,30.00,6.0,West,10.4,-,N/A,Rain,Light Rain,280,2013-07-10 11:44:00
6:58 AM,72.9,70.2,91,29.99,9.0,WNW,9.2,-,0.09,Rain,Light Rain,300,2013-07-10 11:58:00
7:58 AM,71.8,71.8,100,29.99,10.0,South,8.1,-,0.03,,Light Drizzle,190,2013-07-10 12:58:00
7:59 AM,71.6,71.6,100,30.01,10.0,South,8.1,-,N/A,,Overcast,180,2013-07-10 12:59:00
8:58 AM,73.6,73.6,100,30.00,10.0,ESE,3.5,-,0.00,,Mostly Cloudy,110,2013-07-10 13:58:00
9:58 AM,74.8,74.8,100,30.00,10.0,NW,1.2,-,N/A,,Mostly Cloudy,310,2013-07-10 14:58:00
10:43 AM,75.2,75.2,100,30.03,10.0,South,3.5,-,N/A,,Overcast,170,2013-07-10 15:43:00
10:48 AM,75.2,75.2,100,30.03,10.0,ESE,3.5,-,N/A,,Overcast,110,2013-07-10 15:48:00
10:58 AM,75.0,75.0,100,30.01,10.0,ENE,5.8,-,N/A,,Overcast,60,2013-07-10 15:58:00
11:58 AM,75.7,75.2,98,30.01,10.0,South,5.8,-,N/A,,Overcast,170,2013-07-10 16:58:00
12:03 PM,77.0,75.2,94,30.04,10.0,South,5.8,-,N/A,,Overcast,180,2013-07-10 17:03:00
12:18 PM,78.8,75.2,89,30.03,10.0,South,5.8,-,N/A,,Overcast,190,2013-07-10 17:18:00
12:28 PM,78.8,75.2,89,30.03,10.0,Variable,6.9,-,N/A,,Overcast,0,2013-07-10 17:28:00
12:33 PM,78.8,75.2,89,30.03,10.0,Variable,5.8,-,N/A,,Overcast,0,2013-07-10 17:33:00
12:38 PM,78.8,75.2,89,30.02,10.0,Variable,6.9,-,N/A,,Overcast,0,2013-07-10 17:38:00
12:43 PM,78.8,75.2,89,30.03,10.0,Variable,6.9,-,N/A,,Mostly Cloudy,0,2013-07-10 17:43:00
12:58 PM,80.4,74.5,82,29.99,10.0,WSW,5.8,-,N/A,,Overcast,240,2013-07-10 17:58:00
1:58 PM,85.1,73.9,69,29.98,10.0,Variable,4.6,-,N/A,,Mostly Cloudy,0,2013-07-10 18:58:00
2:58 PM,85.5,72.5,65,29.98,10.0,West,6.9,-,N/A,,Scattered Clouds,260,2013-07-10 19:58:00
3:58 PM,87.3,75.9,69,29.96,10.0,Variable,3.5,-,N/A,,Clear,0,2013-07-10 20:58:00
4:58 PM,88.0,77.2,70,29.94,10.0,Variable,5.8,-,N/A,,Partly Cloudy,0,2013-07-10 21:58:00
5:58 PM,82.9,75.9,79,29.94,10.0,NNW,9.2,-,N/A,,Partly Cloudy,340,2013-07-10 22:58:00
6:58 PM,82.9,70.5,66,29.94,10.0,North,3.5,-,N/A,,Mostly Cloudy,10,2013-07-10 23:58:00
7:58 PM,81.1,73.9,79,29.96,10.0,North,2.3,-,N/A,,Clear,350,2013-07-11 00:58:00
8:58 PM,77.9,74.8,90,29.96,10.0,North,2.3,-,N/A,,Clear,360,2013-07-11 01:58:00
9:58 PM,77.5,73.6,88,29.98,10.0,North,4.6,-,N/A,,Clear,350,2013-07-11 02:58:00
10:58 PM,72.1,72.1,100,29.99,8.0,Calm,Calm,-,N/A,,Clear,0,2013-07-11 03:58:00
11:28 PM,71.6,71.6,100,30.02,2.5,NW,1.2,-,N/A,,Clear,320,2013-07-11 04:28:00
11:33 PM,69.8,69.8,100,30.02,6.0,Calm,Calm,-,N/A,,Clear,0,2013-07-11 04:33:00
11:58 PM,71.8,71.8,100,30.00,6.0,Calm,Calm,-,N/A,,Clear,0,2013-07-11 04:58:00